Flag for Montenegro Weather past 2 weeks in Podgorica, Montenegro

Now
68 °F

Partly cloudy.


Feels Like: 68 °F
Forecast: 50 / 70 °F
Wind: 1 mph from North

Location: Podgorica Titograd

Current Time: Sep 22, 2014 at 6:39:30 AM

Latest Report: Sep 22, 2014 at 6:00 AM


Visibility: 4 mi

Pressure: 29.86 "Hg

Humidity: 100%

Dew point: 68 °F

Location of PodgoricaLocation

Historic Weather in Podgorica — Graph

°F

Podgorica temperature yesterday

Maximum temperature yesterday: 79 °F (at 4:00 PM)
Minimum temperature yesterday: 63 °F (at 3:30 AM)
Average temperature yesterday: 70 °F

Past Weeks' High & Low Weather Summary

 TemperatureHumidityPressure
High86 °F (Sep 7, 3:30 PM)100% (Sep 8, 10:30 PM)30.18 "Hg (Sep 8, 10:30 PM)
Low57 °F (Sep 15, 5:00 AM)37% (Sep 9, 4:30 PM)29.80 "Hg (Sep 7, 5:00 AM)
Average70 °F77%29.97 "Hg
* Reported Sep 7 5:00 AM — Sep 22 5:30 AM, Podgorica, Weather by CustomWeather, © 2014

Note: Actual official high and low records may vary slightly from our data, if they occured in-between our weather recording intervals... More about our weather records

Advertising

Podgorica weather history for previous 24 hours

 ConditionsComfort  
Time TempWeatherWind HumidityBarometerVisibility
5:30 AM
Sep 22
68 °FPartly cloudy.5 mph100%29.86 "Hg4 mi
5:00 AM68 °FPartly cloudy.3 mph100%29.86 "Hg5 mi
4:30 AM68 °FMostly cloudy.3 mph100%29.86 "Hg4 mi
4:00 AM68 °FMostly cloudy.3 mph100%29.86 "Hg4 mi
3:30 AM68 °FMostly cloudy.No wind100%29.89 "Hg4 mi
3:00 AM68 °FMostly cloudy.3 mph100%29.89 "Hg4 mi
2:00 AM68 °FLight rain. Partly cloudy.1 mph100%29.92 "Hg5 mi
1:30 AM68 °FLight rain. Passing clouds.2 mph100%29.92 "Hg5 mi
1:00 AM70 °FPartly cloudy.5 mph94%29.92 "HgN/A
12:30 AM68 °FPartly cloudy.1 mph100%29.92 "HgN/A
12:00 AM68 °FPartly cloudy.No wind100%29.92 "HgN/A
11:30 PM
Sep 21
68 °FPartly cloudy.No wind100%29.92 "HgN/A
11:00 PM70 °FPartly cloudy.2 mph94%29.92 "HgN/A
10:30 PM70 °FPartly cloudy.2 mph94%29.92 "HgN/A
10:00 PM70 °FPartly cloudy.2 mph94%29.95 "HgN/A
9:30 PM70 °FPartly cloudy.2 mph94%29.95 "HgN/A
9:00 PM70 °FPartly cloudy.2 mph94%29.92 "HgN/A
8:30 PM72 °FPartly cloudy.3 mph88%29.95 "HgN/A
8:00 PM72 °FPartly cloudy.1 mph88%29.95 "HgN/A
7:30 PM72 °FScattered clouds.1 mph88%29.92 "HgN/A
7:00 PM73 °FScattered clouds.2 mph83%29.92 "HgN/A
6:30 PM75 °FScattered clouds.1 mph78%29.92 "HgN/A
6:00 PM75 °FScattered clouds.2 mph78%29.92 "HgN/A
5:30 PM77 °FScattered clouds.5 mph74%29.92 "HgN/A
5:00 PM79 °FScattered clouds.5 mph70%29.92 "HgN/A
4:30 PM79 °FScattered clouds.5 mph70%29.95 "HgN/A
4:00 PM79 °FScattered clouds.5 mph65%29.95 "HgN/A
3:30 PM77 °FScattered clouds.5 mph69%29.95 "HgN/A
3:00 PM77 °FPassing clouds.3 mph69%29.95 "HgN/A
2:30 PM77 °FPassing clouds.5 mph69%29.95 "HgN/A
2:00 PM77 °FLight rain. Passing clouds.3 mph69%29.98 "HgN/A
1:30 PM77 °FScattered clouds.5 mph69%29.98 "HgN/A
1:00 PM75 °FScattered clouds.2 mph74%30.01 "HgN/A
12:30 PM75 °FThunderstorms. Passing clouds.3 mph74%30.01 "HgN/A
12:00 PM75 °FPassing clouds.3 mph74%30.01 "HgN/A
11:30 AM72 °FScattered clouds.2 mph83%30.01 "HgN/A
11:00 AM70 °FRain showers. Broken clouds.2 mph83%30.01 "Hg4 mi
10:30 AM70 °FPartly sunny.2 mph83%30.04 "HgN/A
10:00 AM68 °FPartly sunny.5 mph94%30.01 "HgN/A
9:30 AM66 °FScattered clouds.No wind94%30.01 "HgN/A
9:00 AM64 °FScattered clouds.No wind100%30.01 "HgN/A
8:30 AM66 °FScattered clouds.2 mph94%30.01 "HgN/A
8:00 AM64 °FScattered clouds.2 mph100%30.04 "HgN/A
7:30 AM64 °FScattered clouds.2 mph100%30.04 "HgN/A
7:00 AM63 °FPassing clouds.2 mph100%30.04 "HgN/A
6:30 AM63 °FPassing clouds.5 mph100%30.04 "HgN/A
6:00 AM63 °FPartly cloudy.6 mph100%30.04 "HgN/A
Weather by CustomWeather, © 2014

See weather overviewHow to use our weather pages